Wind_Speed
20 22 23 24 24 24 23 22 22 22 21 21 20 19 17 16 16 15 15 15 14 13 13 12 11 10 8 5 3 3 3 4 9 14 14 13 12 11 9 9 8 7 6 5 4 3 3 3 3 3 3 3 4 6 8 10 10 10 11 10 9 8 8 8 7 7 7 7 7 7 6 5 4 5 7 7 7 7 6 6 6 7 8 8 9
19 20 22 23 24 25 25 24 23 23 22 21 21 20 18 17 17 16 15 15 15 14 13 12 11 10 8 6 4 3 4 4 8 13 14 13 12 11 9 8 8 7 6 5 4 3 2 2 2 2 2 2 3 4 6 9 10 11 11 11 10 9 8 7 7 7 7 6 6 6 5 5 4 4 6 4 3 3 3 4 5 6 6 7 9
20 21 22 23 24 25 26 26 25 24 22 21 21 20 20 19 18 17 17 17 16 15 14 13 12 11 9 8 6 5 6 6 8 11 13 13 12 11 10 9 8 6 6 5 4 3 2 2 2 2 2 2 2 4 5 8 10 11 11 11 10 10 9 8 7 7 7 7 6 6 5 5 4 4 4 1 1 1 2 3 4 4 4 6 7
20 22 23 23 25 26 27 27 26 25 23 22 21 21 21 20 19 18 18 18 17 16 15 14 13 12 11 10 9 7 8 8 9 11 13 13 13 12 10 9 7 6 5 4 3 3 2 2 2 3 3 3 3 3 5 7 9 10 11 11 11 11 10 9 9 8 8 7 7 7 6 6 5 5 4 3 2 1 2 3 3 3 3 4 7
19 20 22 24 26 26 27 28 27 26 25 24 23 23 22 21 20 19 18 18 17 17 16 15 15 14 13 12 11 9 10 10 11 11 12 13 13 12 11 9 7 6 4 3 3 2 2 2 3 4 4 4 4 4 4 6 8 10 11 11 11 11 10 10 10 9 9 9 8 8 8 7 7 7 5 4 4 4 3 3 4 5 5 5 9
18 19 21 24 26 26 27 27 27 27 27 26 26 25 24 23 21 20 19 18 17 17 16 16 15 15 15 13 12 10 10 11 12 12 13 13 13 13 12 10 8 6 5 4 3 3 3 3 4 5 5 5 6 6 5 5 7 9 11 11 11 11 10 10 10 10 10 10 9 9 9 9 9 8 7 7 6 6 5 5 6 7 8 7 9
19 19 20 22 24 26 26 26 26 28 29 29 29 27 26 25 23 22 21 20 18 17 16 16 15 16 15 13 12 11 11 12 13 13 13 13 14 13 12 11 9 7 6 5 4 4 3 4 5 6 6 7 7 8 8 7 6 7 9 11 12 12 11 11 10 10 10 10 11 11 11 10 10 10 10 9 7 7 7 6 7 9 10 9 8
20 20 20 20 22 24 26 27 27 29 30 31 31 30 28 27 25 24 23 21 20 18 17 17 16 16 15 14 13 12 11 12 13 13 14 14 14 13 12 11 9 8 7 6 5 5 5 5 5 6 7 7 8 9 10 9 8 7 8 10 12 13 13 13 12 11 11 11 11 11 12 12 12 13 13 12 10 8 7 6 7 9 11 11 9
23 21 20 19 21 24 27 29 29 30 31 32 31 31 30 29 28 27 25 23 21 20 19 19 18 17 16 14 13 12 11 12 12 14 15 15 15 15 13 12 10 9 8 7 6 6 6 7 7 7 8 8 9 10 12 12 11 10 9 9 11 13 15 15 14 13 12 11 11 12 13 13 14 15 16 15 14 12 9 8 7 8 9 11 12
27 25 23 23 24 26 29 30 31 31 31 31 30 30 30 30 29 28 26 25 24 22 21 20 19 18 17 15 14 13 12 12 13 14 15 16 16 16 15 13 12 11 9 8 8 7 7 8 9 9 9 10 10 11 12 13 13 13 11 10 11 13 14 16 16 15 13 13 12 13 14 15 15 17 18 18 17 15 12 11 11 10 10 12 15
27 25 23 22 22 25 28 31 32 32 31 30 30 30 31 31 31 30 29 27 26 24 23 21 20 19 19 17 16 14 13 14 14 14 15 16 16 16 16 16 14 13 11 10 9 9 9 9 10 11 11 11 11 11 12 13 14 15 14 13 13 13 14 16 17 17 16 15 14 14 15 16 17 18 18 19 19 17 15 14 14 13 13 15 17
27 24 21 18 17 19 23 26 29 32 32 31 31 31 31 31 31 31 30 29 28 27 25 23 22 22 21 20 18 16 16 16 16 15 16 16 16 16 17 17 16 15 14 12 11 11 10 11 11 12 12 12 12 12 12 12 14 15 16 15 15 15 15 16 18 19 19 17 16 17 17 17 17 18 18 18 19 18 17 17 16 15 16 17 19
31 27 23 19 17 18 19 21 24 27 30 31 31 31 31 30 30 30 31 31 30 29 27 26 24 23 22 21 20 19 18 18 18 17 17 17 17 17 18 18 18 18 17 16 14 13 12 13 13 14 14 13 13 13 12 12 13 15 17 17 16 17 17 18 18 19 20 20 20 20 19 18 18 18 17 17 18 18 18 18 18 18 18 20 21
34 31 27 24 23 25 24 21 22 25 28 30 31 31 29 28 29 30 31 32 31 30 29 27 26 25 24 23 22 21 21 20 20 20 19 18 18 18 19 19 19 20 20 19 17 16 15 15 15 15 15 14 14 14 13 13 13 14 17 18 18 19 19 19 19 19 21 22 23 23 22 20 19 19 17 16 16 16 16 17 18 19 20 22 23
37 34 31 30 30 32 32 27 24 25 27 28 29 30 29 29 29 29 30 31 30 30 30 29 28 27 26 25 24 23 22 22 22 21 21 21 20 20 20 20 20 21 21 21 20 19 18 17 17 17 17 16 16 16 15 15 14 14 16 18 20 21 21 21 21 20 22 23 24 25 24 21 20 19 18 17 17 16 17 17 19 20 21 22 23
36 35 35 34 33 35 34 30 27 26 26 26 26 28 29 29 29 29 29 29 30 30 30 29 29 28 28 27 26 25 24 24 24 23 23 23 23 22 21 21 21 21 22 23 23 23 22 20 19 19 18 17 17 17 17 17 16 16 16 18 20 22 23 23 23 22 22 23 24 25 25 23 21 20 20 19 18 18 19 19 21 21 21 22 23
35 35 36 36 35 35 33 28 26 27 26 25 25 27 29 30 30 30 29 29 29 29 29 28 28 28 28 28 27 26 26 26 26 26 26 26 26 24 22 22 23 23 23 24 25 25 25 23 22 21 21 20 19 19 19 18 18 18 18 18 20 22 24 25 26 25 24 23 24 25 25 24 23 22 21 21 21 21 21 22 23 24 23 23 24
38 36 37 38 38 36 32 27 26 27 27 26 26 27 28 30 31 31 30 29 29 29 29 29 29 29 28 28 28 28 28 28 28 29 29 29 29 27 25 24 24 24 25 25 26 26 26 26 25 23 23 23 23 21 20 19 19 19 19 20 20 22 25 26 27 27 25 24 24 25 25 25 24 24 23 23 23 23 23 24 25 25 25 25 25
41 39 39 40 40 37 33 29 27 27 27 27 27 27 29 30 31 31 31 30 30 30 30 29 29 28 28 27 28 29 29 30 30 30 31 32 31 30 29 26 25 25 26 27 27 27 27 27 27 26 25 26 25 23 21 20 20 21 21 20 21 23 26 27 27 27 26 25 24 25 24 25 25 25 25 25 24 25 25 26 27 27 26 27 26
42 40 40 42 43 40 35 30 28 27 27 28 28 28 29 30 31 31 31 31 31 30 29 29 28 29 28 28 27 28 28 29 30 30 32 33 32 32 31 29 26 26 26 28 28 29 29 29 29 28 28 28 28 26 24 21 21 22 22 22 23 25 26 26 26 26 26 26 26 25 25 25 25 25 26 26 26 26 27 27 28 29 29 29 29
41 39 39 42 45 45 38 30 28 28 29 30 30 30 30 30 31 31 32 31 31 30 29 28 28 28 28 28 27 27 27 27 28 29 30 31 32 32 31 29 28 27 28 28 29 30 30 30 31 31 31 31 30 29 26 24 23 23 24 24 26 27 27 26 26 26 26 27 27 26 26 25 26 26 27 26 26 27 28 29 30 30 31 31 32
39 37 37 38 42 44 39 32 30 31 31 32 32 31 30 30 31 31 32 32 31 30 29 28 27 27 27 27 27 26 26 27 27 28 29 29 29 30 30 29 29 29 29 28 29 29 30 31 33 33 33 33 32 31 28 26 24 24 26 27 28 28 28 28 27 26 27 27 28 28 28 28 28 28 28 28 28 29 30 31 32 32 32 33 34
39 39 37 34 33 35 35 33 32 33 33 33 33 32 31 31 31 31 31 31 31 30 28 27 27 26 26 26 26 26 26 27 27 27 28 27 27 28 28 28 29 30 29 29 29 29 31 32 34 35 35 35 34 32 30 28 26 26 28 30 29 28 28 28 28 28 27 28 28 29 30 30 30 30 29 29 30 31 33 33 33 33 34 34 35
38 38 36 32 29 29 31 31 33 34 35 34 34 34 34 33 32 32 32 31 30 29 27 26 26 25 25 25 25 25 26 27 27 27 28 27 27 27 27 27 28 30 30 29 30 30 31 33 35 36 36 36 35 34 32 30 28 29 30 30 28 27 27 27 28 28 28 28 28 29 30 31 30 30 30 31 32 33 34 34 34 35 36 37 37
39 37 34 32 31 32 33 34 35 36 37 37 36 36 35 34 34 34 33 32 31 29 27 26 25 25 24 24 24 24 25 27 27 27 28 28 28 28 28 28 29 30 30 30 31 31 31 33 36 36 36 37 37 36 34 32 31 31 31 30 28 27 27 27 28 28 27 27 28 28 28 30 30 31 31 32 33 34 34 35 36 36 37 37 37
42 40 38 37 37 37 38 38 37 38 38 38 37 37 37 36 36 36 35 34 32 30 28 27 26 25 24 23 22 23 25 26 27 27 28 29 29 29 29 29 30 31 31 32 32 32 32 33 35 37 37 38 38 37 35 34 33 32 32 30 28 28 27 27 27 27 27 27 26 26 27 29 31 31 32 33 34 34 34 33 33 34 35 36 36
45 44 42 41 41 41 40 40 39 39 38 38 37 37 38 38 38 38 37 35 32 31 29 28 26 25 23 22 22 24 25 26 26 26 28 29 30 30 29 29 31 32 32 32 33 33 33 34 36 38 39 39 38 37 36 35 34 34 32 30 29 28 28 28 27 26 25 25 25 26 28 29 29 29 30 31 31 31 32 32 33 34 36 37 37
46 45 45 45 44 43 41 40 40 40 39 38 37 37 38 39 40 39 37 34 32 31 29 28 27 25 24 23 24 25 26 27 25 25 28 30 31 31 31 31 32 32 33 34 36 36 36 37 38 39 39 38 38 37 37 36 35 34 32 30 28 28 28 27 26 24 22 22 22 24 25 24 24 25 26 27 28 31 33 35 36 38 39 39 39
46 46 47 47 47 45 43 42 42 42 41 40 38 37 38 40 41 40 38 36 34 31 29 27 27 27 26 26 27 28 28 27 26 27 30 32 33 33 33 33 34 35 35 37 38 38 38 38 38 38 38 38 38 38 37 36 36 34 32 30 29 28 27 25 23 21 19 19 19 20 20 20 22 24 25 27 29 32 33 34 36 38 39 39 39
48 48 48 49 49 48 46 45 44 44 43 41 40 40 41 41 41 40 39 37 35 32 30 28 28 29 29 30 30 30 28 27 28 31 33 34 35 36 36 37 38 38 38 39 38 37 36 36 36 37 38 38 38 38 37 37 36 35 33 31 29 28 26 23 21 20 19 19 20 20 21 22 24 25 27 29 31 33 33 34 36 38 38 38 38
51 50 50 50 49 49 48 48 48 47 47 46 46 45 42 39 38 38 38 38 36 34 32 31 31 32 32 32 32 32 30 29 30 32 34 35 36 38 39 40 41 40 39 38 37 35 34 34 35 37 39 39 39 38 38 38 37 35 33 31 29 27 24 22 22 21 21 21 23 23 23 24 26 27 29 31 33 33 34 35 37 37 37 36 36
53 52 52 51 50 50 50 50 51 52 52 51 50 47 42 38 37 38 39 40 39 37 34 33 33 33 33 33 34 34 32 31 31 32 34 36 37 39 41 42 43 42 39 37 35 33 31 32 35 37 39 39 39 39 39 38 37 35 33 32 29 26 25 25 25 24 23 24 25 25 25 26 28 30 32 33 34 35 35 35 35 36 36 35 35
52 52 53 52 52 52 52 52 53 54 54 52 50 48 44 42 41 42 42 40 38 37 35 34 34 33 33 34 36 36 34 33 34 34 35 37 39 41 43 43 42 41 39 35 31 30 31 32 35 38 39 40 40 40 40 39 37 35 33 31 29 28 27 27 27 26 26 27 28 27 27 29 30 32 34 35 36 37 36 34 33 35 36 36 36
50 50 52 53 53 53 54 55 55 55 55 54 53 51 47 44 44 47 48 46 42 39 37 37 36 36 35 36 37 38 36 36 36 36 37 38 41 43 44 43 42 39 36 33 30 29 31 34 36 38 40 41 41 41 41 39 38 36 33 31 31 30 30 29 29 29 29 29 29 29 30 31 32 34 36 38 39 39 36 32 33 36 37 38 38
49 48 49 51 52 53 54 55 56 56 57 56 55 53 50 47 46 47 49 50 48 45 42 39 36 36 37 38 38 39 39 38 38 39 39 40 41 43 43 41 39 37 34 32 31 30 32 34 36 38 40 41 42 43 43 43 42 39 35 33 32 32 31 31 32 32 32 32 32 32 33 33 35 37 39 41 41 40 37 35 36 38 39 38 39
50 49 49 50 51 52 54 55 56 56 56 56 55 53 51 51 50 48 48 49 50 49 48 43 37 36 39 42 42 41 41 41 41 41 41 41 41 42 41 39 37 36 34 32 31 31 32 34 35 37 41 42 42 43 43 43 41 39 36 35 33 31 31 34 35 35 34 34 33 34 35 37 38 39 41 42 41 40 39 40 40 40 40 40 40
51 50 50 50 51 52 53 55 55 55 54 54 54 53 52 53 53 50 47 48 49 51 52 49 43 41 43 45 45 45 44 45 45 44 42 41 41 40 39 37 36 35 33 32 31 32 32 34 36 39 42 42 40 39 40 40 39 38 36 35 34 31 32 36 38 37 35 36 38 39 40 39 39 40 41 41 41 41 43 44 44 44 44 43 42
54 52 51 51 52 53 53 53 53 54 54 51 50 49 49 52 54 52 47 46 47 50 53 52 49 47 48 50 51 50 49 49 49 47 43 41 40 38 37 35 34 34 33 32 32 32 33 34 37 40 41 40 38 37 36 37 39 39 37 36 36 35 35 37 39 40 40 40 40 41 39 38 39 42 43 42 43 45 46 46 46 46 45 43 43
57 54 53 53 53 53 54 53 52 53 51 48 46 45 46 49 51 50 47 46 48 51 53 54 52 51 52 54 56 55 53 51 51 48 43 40 37 36 34 34 34 35 34 33 32 32 33 35 37 39 40 40 40 39 36 35 37 38 37 37 38 38 38 40 42 43 43 39 37 38 40 41 43 45 46 46 48 49 48 48 48 47 45 43 43
58 56 55 55 55 55 55 54 53 52 50 48 46 45 44 45 45 43 43 46 49 51 53 54 53 53 54 57 58 57 54 51 50 47 43 38 37 36 36 36 36 36 34 32 32 33 35 36 37 38 39 41 41 39 36 35 35 36 37 38 39 39 40 43 45 45 43 42 42 43 45 46 47 48 48 50 51 51 50 50 50 48 47 45 44
57 57 56 56 56 56 56 56 54 51 49 48 47 45 42 42 42 41 41 44 47 49 51 53 52 52 54 57 59 58 54 49 46 45 43 41 41 39 38 38 38 37 33 32 34 36 36 36 36 37 38 40 40 38 36 35 35 37 38 39 40 41 42 44 46 46 46 47 48 49 50 50 51 52 52 53 53 53 52 51 50 49 48 47 46
55 56 57 57 57 56 56 56 55 52 49 48 48 46 43 42 41 41 41 43 43 45 48 50 51 52 54 57 59 60 55 49 45 44 43 43 43 42 40 40 41 40 37 36 37 37 36 35 35 36 38 40 40 40 40 39 39 40 40 41 42 44 45 46 47 48 49 50 51 53 54 55 55 55 56 56 55 54 53 51 51 50 49 49 48
56 56 57 58 58 57 56 56 55 53 51 50 48 47 46 44 42 42 42 42 42 43 46 48 50 52 53 55 59 61 59 53 48 46 46 44 42 40 39 41 42 43 42 40 38 36 34 33 34 36 38 40 40 41 41 41 41 42 42 43 45 46 47 48 49 51 52 54 56 57 57 57 57 57 56 56 55 54 53 52 52 52 51 50 49
58 57 57 58 58 57 57 57 57 55 53 52 50 49 47 45 43 42 43 43 42 42 45 49 52 52 53 55 59 63 63 58 52 49 48 47 43 40 39 39 40 41 41 41 40 38 35 33 33 36 38 39 39 39 40 41 41 42 43 45 47 48 49 51 52 53 54 56 57 57 56 56 55 55 55 54 54 54 54 54 53 52 52 51 50
61 59 58 58 59 58 58 58 58 57 55 54 52 49 47 46 45 44 46 47 46 45 47 50 53 54 55 57 61 65 65 61 55 51 49 47 44 41 40 38 36 35 35 35 37 38 37 34 34 35 37 38 39 39 40 40 41 43 45 47 49 50 51 52 52 53 54 55 56 56 55 54 53 54 55 55 55 55 55 54 54 52 52 52 51
63 62 59 57 58 60 60 59 59 58 56 55 54 52 49 47 46 44 45 47 47 47 49 52 55 56 57 60 64 66 65 62 57 52 49 47 43 40 39 37 36 35 34 34 35 36 36 35 35 36 37 38 39 40 41 42 43 44 46 48 50 51 52 53 54 54 54 55 56 56 56 55 54 55 56 56 56 55 55 55 54 52 51 52 52
63 61 59 57 57 59 59 58 58 58 56 56 56 54 51 48 47 46 46 47 47 49 52 55 57 58 60 63 66 66 65 63 60 53 48 47 47 45 44 42 40 38 38 37 36 37 37 37 37 37 38 39 40 42 43 43 44 46 48 49 51 52 53 54 55 56 57 58 58 58 58 57 57 57 57 57 57 57 57 56 54 52 52 53 54
64 61 59 56 56 58 58 56 57 57 56 55 56 55 52 48 46 46 46 47 47 49 53 55 58 59 61 64 66 65 63 64 64 57 51 51 52 52 51 48 43 40 40 40 39 38 38 38 39 39 40 41 42 44 44 45 47 49 51 52 52 52 53 54 55 56 58 59 59 58 58 58 59 60 61 61 61 60 59 57 56 55 55 56 57
63 61 60 57 55 55 55 54 55 55 53 52 53 53 51 48 44 43 44 44 42 42 44 48 52 54 57 61 65 64 62 63 64 59 54 52 51 48 46 45 42 40 40 40 40 40 40 41 41 42 43 44 45 46 47 48 50 51 52 54 54 55 55 54 53 53 55 57 58 57 57 58 58 60 61 63 63 62 61 60 59 59 59 60 61
64 59 58 58 57 56 55 54 53 52 50 48 47 46 48 49 47 45 44 45 43 40 38 38 40 42 47 54 60 62 61 62 60 55 51 49 46 43 41 41 40 39 40 41 41 43 43 44 45 46 47 48 48 48 49 51 53 54 54 54 53 53 53 53 53 54 54 54 54 55 56 58 59 61 62 63 63 63 63 64 64 63 63 64 65
70 63 58 56 57 57 58 57 56 53 51 50 46 43 45 49 50 48 46 46 45 44 41 37 35 35 40 47 55 59 59 59 57 53 50 48 46 44 42 41 40 40 42 43 45 46 47 48 49 51 51 51 51 51 52 53 54 54 54 54 53 53 54 54 54 55 55 53 52 53 56 59 61 62 62 63 64 64 64 65 65 66 65 66 67
Wind_Direction
207 208 212 210 207 206 207 207 207 206 203 198 197 201 206 210 211 214 217 220 223 223 224 226 227 228 226 219 212 208 203 169 159 161 161 160 158 155 151 146 141 137 131 123 111 100 95 95 91 87 99 124 150 168 180 183 179 172 167 165 167 170 170 168 166 159 153 148 141 137 137 130 115 91 74 58 36 24 18 17 21 22 20 16 16
204 205 211 214 213 210 209 210 209 208 206 201 199 199 201 206 209 210 214 220 225 228 230 231 234 239 240 239 236 228 227 202 174 169 167 165 162 160 158 154 150 145 141 137 130 123 119 118 122 119 116 135 158 170 183 189 187 183 179 177 175 178 183 184 181 173 166 162 157 153 146 142 134 96 84 66 16 9 14 14 13 10 10 8 7
198 200 203 209 214 215 214 213 211 209 208 206 204 201 200 203 206 206 209 215 221 226 231 233 237 244 250 252 249 235 230 222 196 181 174 170 167 165 165 162 159 154 150 146 144 145 150 164 178 180 178 180 177 177 187 194 194 192 189 186 184 185 190 195 197 191 183 177 176 173 161 161 156 119 118 161 310 2 6 356 350 347 354 355 353
197 198 199 203 210 214 216 216 214 211 209 209 208 206 204 203 205 206 209 212 216 221 226 231 235 240 247 251 248 235 227 225 213 195 183 175 172 170 169 168 165 164 161 157 157 163 173 190 204 211 213 219 215 198 192 195 199 201 199 195 192 192 195 200 204 203 199 194 191 188 184 185 175 153 163 221 275 291 305 315 312 318 333 338 339
200 201 202 203 207 211 214 216 215 214 212 210 210 210 209 205 204 207 209 211 215 219 221 224 230 235 238 242 242 235 228 226 220 208 194 184 178 175 173 174 173 174 177 177 179 188 204 223 232 229 224 228 235 230 212 201 201 205 206 204 201 201 202 204 209 211 209 207 202 198 199 199 190 178 188 223 244 246 257 272 287 307 320 336 345
202 204 206 206 207 209 212 214 214 214 214 212 212 212 211 208 205 205 208 210 215 219 220 221 225 231 234 235 237 235 231 229 225 217 206 195 188 182 178 178 179 182 189 199 210 214 222 241 254 252 241 234 238 243 239 224 211 208 210 210 210 211 212 213 216 217 217 216 212 207 208 207 198 192 201 221 235 244 253 265 285 302 311 333 352
202 206 209 210 210 209 210 211 211 212 213 213 213 212 211 210 207 205 206 208 211 216 221 222 224 228 232 232 232 232 231 230 228 222 214 206 200 192 185 183 184 188 196 210 228 242 246 252 260 262 256 247 243 246 249 246 234 220 215 215 215 216 219 223 226 227 226 224 220 214 213 214 208 203 208 221 234 246 258 276 295 303 307 320 339
204 207 210 212 212 211 210 210 209 210 211 212 213 212 211 210 209 207 206 206 208 212 217 222 224 227 230 230 229 229 229 230 230 226 220 214 210 205 197 191 190 195 204 214 230 247 262 267 268 267 262 255 246 245 249 251 250 241 228 221 219 219 221 225 229 233 234 233 229 224 221 220 218 214 215 220 227 237 253 275 295 306 310 312 313
204 205 208 210 213 213 210 209 208 209 210 212 213 212 211 210 210 210 208 207 208 210 214 220 225 227 229 229 228 227 226 228 229 227 224 220 217 214 208 201 198 202 209 216 226 242 258 270 274 272 266 260 251 245 244 247 250 251 243 233 227 224 223 226 229 233 237 238 236 233 229 227 225 222 221 223 228 234 242 254 270 290 303 301 294
204 203 204 207 210 211 210 209 209 209 211 212 213 213 213 212 211 211 210 209 210 212 213 217 222 227 230 230 228 226 224 226 227 227 226 225 223 220 215 210 207 207 211 219 227 237 250 263 271 273 270 265 257 250 245 244 246 249 249 244 239 234 229 229 231 233 237 239 239 238 237 235 232 228 225 226 231 235 238 245 255 265 276 283 284
209 207 208 214 219 218 213 209 207 208 209 210 212 214 214 214 212 212 211 210 211 213 214 215 219 224 229 230 229 226 226 227 226 226 227 228 227 225 220 217 213 212 215 221 228 235 244 254 263 268 269 268 264 259 253 248 245 246 247 247 247 245 239 235 236 236 237 240 240 241 241 240 238 235 231 230 233 236 238 243 252 259 263 268 275
211 212 213 222 234 233 226 220 213 209 207 208 210 213 215 215 214 214 213 212 212 214 214 215 217 221 226 230 230 228 228 230 230 228 228 229 230 229 225 222 219 218 222 227 230 234 240 247 255 262 265 267 267 266 262 256 250 247 246 245 247 250 248 243 241 240 240 242 242 243 245 245 242 239 236 235 237 240 243 246 252 259 264 267 271
206 208 209 211 213 215 225 236 233 222 214 210 210 212 214 215 216 216 215 214 214 214 215 216 217 219 223 227 230 230 230 232 233 233 231 230 230 231 229 226 223 222 226 231 235 239 242 245 249 255 260 263 265 266 265 260 255 250 248 246 244 248 251 250 248 246 244 244 245 247 249 250 251 249 244 243 245 247 250 254 257 261 267 271 274
201 203 205 204 198 194 201 220 237 237 228 219 215 213 213 213 215 217 217 217 216 215 216 218 219 220 221 223 226 229 231 233 234 236 236 234 233 232 231 229 226 224 226 229 234 240 245 245 245 249 255 258 260 262 262 261 258 254 252 249 245 245 249 252 252 250 247 247 249 252 253 253 256 259 258 255 257 259 261 264 266 269 272 275 277
198 200 203 203 198 193 192 198 216 231 231 225 220 216 213 212 214 217 219 219 218 216 216 218 219 220 221 221 222 225 229 233 235 237 239 239 237 235 234 232 229 226 225 228 232 238 244 246 245 246 250 254 257 259 259 258 257 256 253 251 248 246 246 250 253 252 251 251 253 257 259 258 257 262 265 265 266 269 272 274 276 276 277 280 282
203 201 203 203 200 197 195 194 201 214 221 222 220 217 214 213 212 215 217 218 218 217 217 218 220 222 223 223 222 223 225 230 233 236 240 241 240 237 235 235 234 231 228 228 232 238 243 246 246 245 247 251 253 255 257 258 257 258 257 254 250 248 246 247 251 253 254 254 255 259 263 264 261 261 266 269 271 273 275 278 280 280 280 282 284
215 209 205 205 203 202 202 200 200 206 212 213 214 213 213 212 212 213 215 216 217 216 215 215 217 220 223 225 224 223 224 227 231 234 238 241 242 240 236 234 234 233 231 229 231 236 242 246 247 246 246 248 249 250 252 255 256 257 258 257 254 251 247 246 248 251 253 257 259 261 264 266 266 264 266 269 272 273 274 276 278 279 280 281 282
222 217 212 210 208 205 205 203 203 207 210 208 208 209 210 211 211 212 213 214 215 214 213 212 213 216 221 224 225 224 224 225 228 231 235 239 242 242 239 235 233 232 232 231 232 235 240 244 247 247 246 247 248 248 249 250 253 255 255 256 257 254 250 248 247 249 253 257 260 261 262 264 267 269 270 271 273 274 275 275 276 278 280 281 283
224 219 216 216 211 207 206 204 203 207 210 208 206 206 208 211 212 212 212 213 215 216 215 213 212 213 216 220 224 226 227 227 228 230 232 236 240 241 241 237 234 232 232 232 233 236 239 241 244 246 246 245 247 248 247 247 250 253 254 254 256 255 253 252 250 251 253 256 259 261 261 262 266 269 272 273 275 276 276 275 276 278 280 283 286
225 222 221 219 214 207 204 203 203 206 211 211 208 206 207 211 214 214 213 213 216 218 217 215 213 212 213 215 220 225 228 230 231 231 233 235 238 241 242 240 236 234 233 232 232 234 237 240 242 243 243 244 245 246 246 243 243 247 251 253 254 255 255 256 256 255 255 255 257 259 261 262 265 267 270 272 274 276 276 277 279 281 283 286 289
223 223 223 221 214 207 205 208 210 209 211 212 211 209 208 211 214 216 215 214 216 218 219 219 217 215 215 215 217 221 226 230 233 234 235 236 238 240 242 241 239 236 234 232 232 233 234 237 239 240 241 242 243 244 245 243 240 241 246 249 252 255 258 260 260 258 257 256 257 258 259 261 262 264 267 269 272 275 277 279 281 283 286 289 291
219 217 217 216 213 210 213 220 221 216 214 214 214 213 211 211 214 216 217 216 216 217 219 221 221 220 220 219 219 221 224 228 232 236 238 239 239 240 241 241 240 238 235 234 233 233 233 233 235 238 239 240 241 242 243 242 240 239 242 246 250 254 258 261 261 261 260 259 258 258 259 260 261 263 266 269 272 275 277 278 280 282 285 288 290
217 213 213 214 213 213 217 223 223 221 219 218 218 216 214 213 214 216 217 217 217 217 219 222 224 225 225 225 225 225 225 226 229 234 239 242 243 243 242 240 240 238 236 235 235 234 233 233 234 236 238 239 241 241 242 241 240 239 241 245 249 254 258 261 262 262 262 261 261 261 262 263 264 267 270 273 274 276 277 279 282 284 285 286 286
216 215 217 219 218 220 222 223 222 221 221 221 221 220 218 217 216 217 217 218 218 218 218 221 224 226 228 228 229 229 229 229 229 231 236 240 243 245 244 242 240 238 236 235 236 235 234 233 234 235 237 239 240 241 241 241 240 240 242 246 250 256 260 261 262 262 262 263 263 264 266 268 271 273 274 275 276 278 280 283 284 285 285 285 285
215 216 217 218 218 221 223 224 222 221 220 221 222 222 222 222 221 220 220 219 218 218 219 221 224 226 228 230 231 232 233 234 233 233 234 236 238 241 243 242 241 240 237 236 237 236 235 234 235 236 237 239 240 240 240 240 240 242 244 247 251 256 260 261 261 261 261 261 263 265 268 270 271 272 274 276 278 280 282 283 285 286 287 287 288
215 214 213 212 213 216 219 221 222 222 222 222 223 223 224 225 225 224 224 222 221 220 222 224 225 227 229 231 234 236 237 238 238 237 237 237 237 237 240 242 242 241 239 238 239 238 237 237 237 238 238 239 241 241 241 241 241 243 245 248 251 255 259 260 259 259 259 259 261 263 264 264 265 268 272 275 277 279 281 283 285 286 287 289 292
214 212 210 208 209 212 215 218 220 221 222 224 225 226 226 226 227 227 227 226 225 225 227 229 229 229 230 232 234 238 241 241 241 240 240 240 238 236 236 239 242 242 240 240 241 240 239 237 236 237 238 240 243 244 243 243 244 245 246 248 252 256 257 258 258 259 259 260 260 259 260 261 265 268 272 276 280 282 284 285 287 289 291 293 294
212 211 209 207 208 211 214 216 218 220 223 225 227 228 228 228 228 229 228 228 229 230 233 234 234 233 232 232 233 237 241 243 243 243 243 242 240 237 235 236 239 241 240 240 240 239 238 237 237 238 240 242 244 246 246 246 247 248 249 250 253 256 257 257 257 258 258 258 258 258 261 265 269 272 276 282 286 288 289 290 292 294 296 297 297
212 211 210 208 209 212 215 217 219 221 224 226 227 228 227 227 227 227 226 227 228 231 234 237 238 238 236 233 233 235 238 241 243 243 243 242 240 237 235 235 237 238 239 239 239 238 238 238 239 240 242 244 245 246 248 249 250 251 251 252 253 255 256 256 255 254 253 253 255 258 263 268 272 277 281 285 288 290 292 295 297 299 301 302 301
216 214 213 212 212 214 215 217 220 222 224 225 226 226 225 224 224 225 226 227 229 231 233 235 237 238 236 234 234 236 237 239 241 242 243 243 241 238 237 236 237 238 238 239 240 240 239 240 240 242 243 245 246 246 248 249 251 252 253 254 255 255 255 252 249 246 247 250 255 260 265 270 274 278 282 284 287 290 293 297 300 303 305 305 302
218 217 215 215 215 216 217 218 220 222 223 224 225 225 224 225 226 226 227 228 229 230 232 233 235 236 235 234 236 237 237 238 241 243 245 246 244 242 240 239 240 241 241 241 241 241 240 239 240 242 244 245 245 246 247 249 250 252 253 255 255 254 251 246 244 245 249 254 260 265 268 272 275 277 280 283 287 290 294 298 302 304 304 303 300
219 218 217 217 217 218 219 220 221 223 224 225 226 225 224 225 229 233 234 232 230 229 232 234 236 237 236 235 236 236 236 238 241 244 245 246 246 245 243 242 244 245 245 244 243 243 241 239 240 242 244 245 246 246 247 248 249 250 252 254 254 251 247 244 245 250 256 261 265 268 271 274 275 276 279 283 286 289 293 298 303 305 303 301 299
220 219 219 219 219 220 221 222 223 225 227 228 229 229 226 224 226 231 236 237 235 233 233 235 237 237 237 236 237 237 235 236 239 242 244 244 244 245 245 244 245 248 249 249 247 244 241 238 239 242 244 245 245 245 245 246 247 248 250 251 250 247 245 246 250 255 259 263 266 269 271 273 274 276 279 282 285 289 293 297 303 306 303 299 297
221 221 221 221 221 222 223 224 226 227 228 229 230 230 229 226 225 226 229 232 233 233 236 239 239 239 238 236 237 237 236 235 237 241 244 244 243 244 246 246 247 249 251 252 249 244 238 237 239 241 243 244 245 246 246 246 245 245 245 245 245 244 245 248 252 255 258 262 266 269 272 273 275 277 279 281 285 288 291 296 303 305 302 297 294
222 222 223 224 225 225 226 227 228 229 230 231 232 232 230 229 228 227 228 231 232 232 235 241 244 243 243 242 240 238 237 235 235 239 242 243 244 245 246 248 249 251 252 251 247 241 236 237 239 242 244 244 243 244 245 244 243 241 238 237 239 242 246 249 253 256 261 265 268 270 273 275 276 278 280 282 285 288 290 295 301 302 299 296 293
223 223 224 226 227 228 229 230 231 232 234 235 236 237 236 234 233 230 228 230 233 234 236 240 243 243 243 244 243 242 239 235 235 238 241 243 244 245 246 247 248 249 248 245 242 238 236 238 241 244 246 246 244 244 246 248 250 249 245 239 238 241 247 250 254 258 263 267 269 270 272 274 275 277 280 282 286 290 293 295 298 299 298 295 292
224 225 225 226 228 229 231 232 233 234 236 237 237 239 241 241 240 238 233 230 233 236 238 239 240 239 238 237 238 240 239 236 236 237 239 241 243 245 246 246 246 246 245 243 240 239 239 240 242 245 247 249 249 250 252 256 258 257 254 248 245 246 249 252 257 261 265 267 270 271 270 270 273 277 280 284 289 294 295 295 296 296 295 292 289
225 226 226 227 229 230 232 234 235 236 237 238 238 238 240 241 240 241 239 234 232 236 238 238 237 237 234 232 233 236 238 237 236 236 237 239 242 244 245 245 245 244 243 241 239 239 240 242 243 246 249 252 252 253 255 256 257 256 253 251 251 253 255 257 261 264 265 265 267 269 269 271 275 279 282 287 291 292 292 292 294 295 293 289 286
225 227 227 228 230 232 233 235 237 237 238 239 239 240 244 243 241 241 242 238 234 234 236 236 236 235 233 232 232 234 238 239 238 236 236 238 242 243 243 244 244 243 240 240 240 241 241 241 244 247 251 253 253 253 253 255 256 256 253 252 254 258 262 263 265 267 269 270 271 272 273 275 278 280 282 285 288 289 289 290 291 292 291 288 286
223 227 228 229 231 233 235 237 238 237 238 239 239 242 245 244 242 241 241 238 235 234 236 237 236 234 233 233 233 234 238 240 239 237 236 237 239 240 239 240 242 241 237 235 238 239 238 239 241 245 248 252 254 254 253 253 255 257 256 255 257 261 265 267 269 272 275 278 279 278 278 279 281 282 283 284 285 286 287 288 288 288 288 287 287
222 226 229 231 232 233 236 238 240 240 239 239 240 241 241 239 239 239 238 237 236 236 236 237 237 235 235 234 233 234 236 239 239 238 238 238 238 236 235 236 239 240 237 234 234 237 238 239 241 244 247 251 255 258 258 257 257 257 257 257 259 262 265 267 269 272 274 276 277 278 279 280 281 282 283 283 283 284 285 285 286 286 285 286 287
223 225 229 233 234 234 236 238 241 243 242 240 240 241 239 237 237 237 236 235 236 236 236 236 237 237 236 234 233 233 235 238 238 237 235 236 236 235 234 234 235 237 237 233 231 234 238 240 241 243 245 247 250 253 256 258 258 257 258 259 261 263 265 268 270 272 274 276 277 278 278 279 280 281 282 282 283 284 284 284 284 284 285 286 286
226 227 229 233 236 237 238 239 241 244 245 243 241 241 240 239 237 236 235 235 235 234 234 234 236 237 237 235 234 234 234 236 236 234 230 230 232 233 234 237 238 239 239 236 234 236 241 241 239 241 244 246 248 250 254 257 259 260 261 263 265 267 268 270 272 274 275 276 277 277 277 278 279 280 281 282 283 283 284 284 284 285 285 286 285
230 230 230 233 236 238 241 242 243 244 246 246 244 242 241 240 238 237 237 237 234 232 231 231 232 235 236 235 235 235 235 235 236 235 232 230 231 230 232 237 241 243 245 244 243 244 247 247 244 246 249 251 253 255 257 260 262 264 265 267 268 269 271 272 273 274 275 275 276 276 276 276 277 279 280 281 282 282 283 283 284 284 284 284 285
236 235 234 235 236 238 241 244 245 245 246 247 247 246 243 240 239 239 241 242 238 234 231 231 232 234 235 236 237 238 237 235 235 236 232 229 229 229 231 236 240 243 245 246 245 246 249 251 251 253 254 256 257 259 260 261 263 264 265 267 268 269 270 271 272 273 274 274 275 274 274 275 277 279 280 280 280 281 282 282 283 283 284 285 285
241 241 240 240 239 239 240 243 245 246 246 246 247 247 245 241 241 242 244 245 243 238 236 235 236 236 237 238 239 240 238 236 236 236 232 226 224 226 230 234 238 241 243 244 244 245 248 252 254 256 258 259 260 261 262 262 263 264 265 266 268 269 270 272 273 273 274 275 275 275 275 275 276 277 278 278 279 279 279 280 280 282 283 284 285
242 242 243 244 243 240 240 241 243 245 246 247 247 248 246 243 244 246 248 248 245 241 238 238 238 237 235 235 237 239 239 237 236 235 231 225 225 227 229 231 234 236 238 241 243 245 248 252 254 256 258 259 259 261 263 263 265 266 266 267 270 271 272 273 275 275 275 275 275 275 275 276 277 277 277 277 278 279 279 280 280 281 281 282 283
241 242 242 243 243 242 241 241 241 243 245 247 247 246 245 244 245 248 251 250 248 243 239 238 238 237 234 233 235 238 237 235 235 236 232 228 230 233 233 232 232 233 235 239 242 245 248 251 253 255 257 258 259 262 264 265 266 267 268 268 271 273 274 275 275 275 274 273 274 274 275 276 277 277 277 278 278 279 280 281 281 281 281 282 283
239 240 240 241 241 241 241 241 240 241 243 246 246 245 245 244 243 244 246 248 248 246 243 242 242 239 234 231 233 236 235 234 236 237 234 231 234 237 235 232 231 232 233 237 242 245 248 251 254 256 258 259 260 262 264 266 267 268 269 270 272 273 274 276 278 278 276 272 271 273 275 276 277 277 277 278 279 279 279 280 280 281 281 282 282
237 237 238 240 241 242 242 242 241 240 241 243 245 244 243 243 244 244 245 247 249 249 248 249 249 243 234 230 231 235 236 234 234 234 234 235 238 239 235 233 233 234 236 239 244 247 250 252 255 256 258 260 261 263 266 267 268 269 271 273 273 273 274 276 280 282 278 272 270 273 275 276 277 278 278 279 279 278 277 278 278 279 280 280 281
237 237 237 238 240 242 243 244 244 242 241 242 244 243 242 245 249 250 250 250 252 253 254 256 256 250 242 237 235 236 236 234 231 230 232 237 240 238 235 234 234 236 239 243 246 249 250 253 255 257 259 260 261 264 267 268 269 271 273 274 274 275 276 277 280 281 277 270 269 273 275 275 277 278 278 278 279 279 277 277 277 278 279 279 281
Height
5920 5922 5924 5925 5927 5930 5932 5934 5935 5936 5937 5939 5940 5942 5944 5945 5947 5948 5949 5950 5951 5952 5954 5955 5956 5957 5958 5960 5961 5961 5962 5963 5964 5964 5965 5965 5966 5966 5966 5967 5968 5968 5968 5969 5969 5969 5969 5969 5969 5969 5970 5970 5970 5970 5970 5971 5971 5971 5972 5972 5972 5972 5972 5972 5973 5973 5973 5973 5973 5973 5973 5973 5973 5973 5972 5971 5970 5969 5969 5968 5967 5967 5966 5965 5965
5917 5920 5922 5924 5926 5928 5930 5932 5934 5936 5937 5938 5939 5940 5942 5944 5945 5947 5948 5949 5950 5952 5953 5954 5955 5956 5958 5959 5960 5961 5962 5962 5963 5964 5964 5965 5965 5966 5966 5967 5967 5968 5968 5969 5969 5969 5969 5970 5970 5970 5970 5970 5970 5970 5970 5971 5971 5971 5971 5972 5972 5972 5972 5972 5972 5972 5972 5973 5973 5973 5973 5973 5973 5972 5971 5970 5970 5970 5969 5968 5968 5967 5966 5966 5964
5914 5916 5918 5921 5923 5926 5928 5930 5932 5934 5936 5937 5938 5939 5940 5942 5944 5946 5947 5948 5949 5951 5952 5953 5955 5956 5957 5958 5959 5960 5961 5961 5962 5963 5964 5965 5965 5966 5966 5967 5967 5968 5968 5969 5969 5969 5970 5970 5970 5970 5970 5970 5971 5971 5971 5971 5971 5971 5971 5971 5971 5972 5972 5972 5972 5972 5972 5972 5972 5972 5973 5973 5972 5972 5971 5971 5971 5970 5969 5969 5968 5967 5966 5965 5964
5911 5913 5916 5918 5920 5922 5925 5928 5930 5933 5935 5937 5937 5938 5939 5940 5942 5944 5945 5947 5948 5949 5951 5952 5953 5954 5955 5956 5958 5959 5960 5960 5961 5962 5963 5964 5965 5965 5966 5966 5967 5967 5968 5968 5968 5969 5969 5969 5970 5970 5970 5970 5970 5970 5970 5970 5971 5971 5971 5971 5971 5971 5971 5971 5972 5972 5972 5972 5972 5972 5972 5972 5972 5971 5971 5971 5970 5970 5969 5969 5968 5967 5966 5965 5964
5910 5911 5913 5915 5917 5919 5922 5925 5928 5930 5933 5935 5936 5937 5937 5938 5940 5941 5943 5945 5946 5948 5949 5951 5952 5953 5954 5955 5956 5957 5958 5959 5960 5961 5962 5963 5964 5965 5965 5966 5966 5967 5967 5967 5968 5968 5968 5968 5969 5969 5969 5969 5969 5969 5970 5970 5970 5970 5970 5971 5971 5971 5971 5971 5971 5971 5971 5971 5971 5971 5971 5971 5971 5971 5971 5970 5970 5969 5969 5968 5967 5966 5966 5965 5963
5908 5909 5910 5912 5914 5916 5919 5922 5925 5928 5930 5931 5933 5934 5936 5936 5938 5939 5941 5943 5944 5946 5948 5949 5950 5951 5952 5953 5954 5956 5957 5957 5958 5959 5960 5961 5963 5964 5965 5965 5966 5966 5966 5967 5967 5967 5968 5968 5968 5968 5968 5968 5968 5969 5969 5969 5969 5970 5970 5970 5970 5970 5970 5970 5970 5970 5970 5970 5970 5970 5970 5970 5970 5970 5970 5970 5969 5969 5968 5967 5966 5965 5965 5964 5963
5906 5907 5908 5910 5911 5914 5916 5919 5922 5924 5926 5928 5929 5931 5933 5935 5936 5937 5938 5940 5942 5944 5945 5947 5949 5949 5950 5952 5953 5954 5955 5956 5957 5957 5959 5960 5961 5962 5963 5964 5965 5965 5966 5966 5966 5966 5967 5967 5967 5967 5967 5967 5967 5967 5968 5968 5968 5968 5969 5969 5969 5969 5969 5969 5969 5969 5969 5969 5969 5969 5969 5969 5969 5969 5969 5968 5968 5968 5967 5966 5965 5964 5964 5963 5963
5903 5904 5906 5908 5909 5911 5914 5916 5918 5920 5922 5923 5925 5928 5930 5932 5933 5934 5935 5937 5940 5942 5943 5945 5946 5948 5949 5950 5951 5952 5953 5954 5955 5956 5957 5958 5959 5961 5962 5963 5964 5964 5965 5965 5965 5965 5966 5966 5966 5966 5966 5966 5966 5967 5966 5967 5967 5967 5967 5968 5968 5968 5968 5967 5967 5968 5968 5968 5968 5968 5968 5967 5967 5967 5967 5967 5967 5966 5966 5965 5964 5963 5962 5962 5962
5900 5902 5904 5906 5907 5908 5910 5912 5915 5917 5918 5920 5922 5925 5927 5929 5930 5932 5933 5935 5937 5939 5941 5942 5944 5946 5947 5948 5949 5951 5952 5952 5953 5954 5955 5957 5958 5959 5960 5961 5962 5963 5964 5964 5964 5965 5965 5965 5965 5965 5965 5965 5965 5965 5965 5965 5966 5966 5966 5966 5967 5967 5967 5966 5966 5966 5966 5966 5966 5966 5966 5966 5966 5965 5965 5965 5965 5965 5965 5964 5964 5963 5962 5961 5961
5897 5899 5901 5902 5903 5904 5906 5908 5911 5914 5916 5919 5921 5922 5924 5926 5928 5929 5931 5932 5934 5936 5938 5940 5942 5944 5945 5946 5948 5949 5950 5951 5951 5952 5953 5955 5956 5957 5958 5960 5961 5962 5963 5963 5963 5964 5964 5964 5964 5964 5964 5964 5964 5964 5964 5964 5964 5964 5964 5965 5965 5965 5965 5965 5965 5965 5965 5965 5964 5964 5964 5964 5964 5964 5964 5964 5963 5963 5964 5963 5963 5963 5961 5960 5959
5896 5898 5900 5902 5905 5907 5906 5906 5907 5910 5913 5916 5918 5920 5922 5924 5925 5927 5928 5929 5931 5933 5935 5937 5939 5941 5943 5944 5946 5947 5948 5949 5950 5950 5951 5952 5954 5955 5956 5958 5959 5960 5961 5961 5962 5962 5963 5963 5963 5963 5963 5963 5963 5963 5963 5963 5963 5963 5963 5963 5963 5963 5963 5963 5963 5963 5963 5963 5963 5963 5962 5962 5962 5962 5962 5962 5962 5962 5962 5962 5962 5961 5961 5959 5958
5895 5897 5901 5904 5909 5913 5913 5911 5909 5908 5910 5912 5914 5917 5919 5921 5923 5924 5926 5927 5928 5929 5932 5934 5936 5938 5940 5941 5943 5945 5946 5947 5947 5948 5949 5950 5951 5953 5954 5955 5956 5958 5959 5959 5960 5961 5961 5961 5961 5962 5961 5961 5961 5961 5961 5961 5961 5961 5961 5961 5961 5961 5961 5961 5961 5961 5961 5961 5961 5960 5960 5960 5960 5960 5961 5961 5961 5961 5961 5961 5960 5960 5959 5958 5957
5890 5894 5897 5900 5904 5910 5914 5916 5914 5912 5911 5910 5911 5913 5916 5919 5921 5923 5924 5924 5925 5927 5928 5931 5933 5935 5937 5939 5941 5942 5943 5944 5945 5946 5947 5948 5949 5950 5951 5952 5954 5955 5956 5957 5958 5958 5959 5959 5960 5960 5960 5960 5960 5960 5960 5960 5960 5959 5959 5960 5960 5959 5959 5959 5959 5959 5959 5959 5958 5958 5958 5958 5958 5958 5959 5959 5959 5959 5959 5959 5959 5959 5958 5957 5956
5883 5889 5893 5896 5898 5901 5906 5910 5914 5914 5912 5910 5910 5911 5914 5917 5919 5920 5921 5922 5923 5924 5926 5927 5929 5932 5934 5936 5937 5939 5940 5942 5943 5943 5944 5946 5946 5947 5948 5949 5951 5952 5954 5955 5955 5956 5957 5957 5958 5958 5958 5958 5958 5958 5958 5958 5958 5958 5957 5957 5958 5957 5957 5957 5957 5957 5956 5956 5956 5955 5955 5956 5956 5956 5957 5957 5957 5958 5958 5958 5958 5957 5956 5955 5955
5877 5883 5888 5892 5893 5893 5895 5898 5904 5909 5910 5909 5909 5910 5911 5913 5915 5917 5919 5920 5921 5922 5923 5924 5926 5928 5930 5932 5934 5936 5937 5939 5940 5941 5942 5943 5944 5945 5946 5947 5948 5950 5951 5952 5953 5954 5954 5955 5955 5956 5956 5956 5956 5956 5956 5956 5956 5956 5956 5955 5955 5955 5955 5955 5954 5954 5954 5954 5953 5953 5953 5954 5954 5954 5954 5955 5956 5956 5956 5956 5956 5955 5955 5953 5952
5876 5879 5883 5887 5889 5890 5891 5892 5896 5901 5905 5906 5907 5908 5909 5910 5912 5914 5916 5917 5918 5919 5920 5921 5923 5924 5926 5928 5930 5933 5934 5935 5937 5938 5939 5939 5940 5942 5943 5944 5946 5947 5949 5950 5951 5951 5952 5952 5953 5953 5953 5954 5954 5953 5953 5953 5954 5954 5953 5953 5953 5953 5952 5952 5952 5951 5951 5951 5951 5951 5951 5951 5952 5953 5953 5953 5954 5954 5954 5954 5953 5953 5952 5951 5950
5879 5879 5881 5883 5885 5888 5891 5892 5893 5896 5899 5902 5903 5905 5906 5907 5908 5910 5912 5914 5915 5916 5918 5919 5920 5921 5922 5924 5927 5929 5930 5932 5933 5934 5935 5935 5937 5938 5940 5942 5943 5944 5946 5947 5948 5948 5949 5949 5950 5950 5951 5951 5951 5951 5951 5951 5951 5951 5951 5950 5950 5950 5949 5949 5949 5949 5949 5949 5949 5949 5949 5950 5950 5951 5951 5952 5952 5952 5952 5951 5950 5949 5949 5948 5947
5878 5879 5880 5881 5882 5885 5888 5891 5892 5894 5896 5898 5899 5901 5902 5903 5905 5907 5909 5910 5912 5913 5914 5915 5916 5917 5919 5921 5923 5925 5926 5928 5929 5930 5931 5932 5933 5934 5936 5938 5940 5941 5942 5943 5944 5945 5946 5946 5947 5947 5948 5948 5948 5948 5949 5949 5949 5948 5948 5948 5947 5947 5946 5946 5946 5946 5947 5947 5947 5948 5948 5948 5949 5949 5949 5949 5949 5949 5948 5948 5946 5946 5945 5945 5944
5874 5876 5877 5877 5879 5882 5885 5887 5890 5892 5894 5895 5896 5897 5899 5900 5901 5903 5905 5907 5908 5909 5910 5912 5913 5915 5916 5917 5919 5920 5922 5924 5925 5927 5928 5928 5929 5930 5932 5934 5936 5938 5939 5940 5941 5942 5942 5943 5943 5944 5945 5944 5944 5945 5946 5946 5946 5945 5945 5945 5944 5943 5942 5942 5943 5944 5945 5946 5946 5946 5947 5947 5947 5947 5947 5946 5946 5945 5944 5944 5943 5942 5942 5942 5941
5869 5871 5872 5873 5876 5879 5881 5884 5887 5889 5891 5892 5892 5893 5895 5897 5898 5900 5902 5903 5904 5905 5907 5909 5910 5912 5913 5914 5915 5917 5918 5920 5921 5923 5923 5924 5926 5927 5928 5931 5933 5934 5935 5936 5937 5938 5938 5939 5939 5940 5940 5940 5940 5941 5942 5943 5943 5942 5942 5942 5940 5939 5939 5940 5941 5942 5943 5944 5944 5945 5945 5945 5945 5945 5944 5943 5942 5942 5941 5941 5940 5940 5939 5939 5939
5863 5866 5867 5869 5872 5875 5878 5881 5884 5886 5887 5889 5889 5889 5891 5893 5895 5897 5898 5899 5901 5902 5904 5905 5907 5908 5910 5911 5913 5914 5915 5916 5917 5918 5919 5920 5922 5923 5925 5927 5929 5931 5931 5932 5933 5934 5934 5935 5935 5935 5936 5936 5936 5937 5938 5939 5940 5939 5939 5938 5937 5936 5936 5937 5938 5939 5940 5941 5942 5942 5943 5943 5942 5942 5941 5940 5940 5939 5939 5939 5938 5937 5937 5936 5935
5858 5861 5863 5866 5869 5873 5875 5878 5881 5882 5883 5884 5885 5887 5888 5889 5892 5894 5895 5896 5897 5899 5900 5901 5903 5905 5906 5908 5910 5911 5912 5913 5914 5914 5915 5917 5918 5919 5921 5923 5925 5926 5927 5929 5930 5931 5931 5930 5930 5930 5930 5931 5932 5933 5934 5935 5936 5936 5936 5934 5933 5934 5934 5934 5935 5936 5937 5938 5939 5939 5939 5939 5939 5938 5938 5938 5938 5938 5937 5936 5935 5934 5934 5933 5932
5853 5856 5859 5862 5866 5869 5872 5875 5877 5878 5879 5881 5882 5884 5884 5886 5888 5890 5891 5893 5894 5895 5897 5898 5900 5902 5903 5905 5907 5908 5909 5910 5911 5912 5913 5914 5915 5916 5918 5920 5921 5922 5924 5926 5927 5927 5927 5926 5926 5926 5926 5926 5927 5928 5930 5931 5932 5932 5931 5931 5931 5931 5932 5932 5932 5933 5934 5934 5935 5935 5935 5935 5935 5935 5935 5935 5935 5934 5933 5932 5932 5931 5930 5929 5928
5849 5852 5855 5858 5861 5864 5867 5870 5872 5874 5876 5877 5879 5880 5881 5882 5885 5887 5888 5889 5891 5892 5894 5895 5897 5899 5900 5902 5904 5905 5906 5907 5908 5909 5910 5911 5912 5913 5914 5916 5917 5917 5919 5921 5922 5923 5923 5922 5922 5921 5922 5922 5923 5924 5925 5926 5927 5927 5927 5927 5928 5929 5929 5929 5929 5930 5930 5931 5931 5931 5931 5931 5932 5932 5931 5931 5930 5930 5929 5929 5928 5927 5925 5924 5923
5845 5848 5851 5854 5857 5860 5863 5865 5867 5870 5872 5873 5875 5876 5877 5879 5881 5883 5885 5886 5887 5889 5891 5892 5894 5896 5897 5899 5901 5902 5903 5904 5905 5906 5907 5908 5909 5910 5911 5912 5912 5913 5915 5917 5918 5918 5918 5918 5917 5918 5918 5919 5919 5920 5921 5922 5923 5923 5923 5924 5925 5926 5926 5926 5926 5926 5927 5927 5928 5928 5928 5928 5928 5927 5927 5926 5926 5926 5925 5925 5924 5922 5921 5919 5919
5840 5843 5846 5849 5853 5856 5858 5861 5864 5866 5868 5869 5871 5873 5874 5875 5877 5879 5880 5882 5884 5886 5888 5889 5891 5893 5895 5896 5898 5899 5899 5900 5902 5903 5904 5905 5906 5907 5907 5908 5908 5909 5910 5912 5913 5913 5914 5914 5913 5913 5914 5914 5915 5916 5918 5918 5919 5919 5920 5921 5922 5923 5923 5923 5923 5923 5924 5924 5925 5925 5924 5923 5923 5923 5923 5922 5922 5921 5921 5920 5919 5918 5916 5915 5915
5837 5840 5843 5845 5848 5851 5854 5857 5860 5862 5863 5866 5868 5869 5870 5871 5872 5874 5876 5879 5881 5883 5884 5886 5887 5889 5892 5894 5895 5895 5896 5896 5898 5900 5901 5901 5902 5903 5903 5904 5904 5905 5906 5907 5908 5908 5909 5909 5908 5908 5909 5910 5911 5912 5913 5914 5915 5916 5916 5917 5918 5919 5919 5919 5919 5920 5921 5921 5921 5921 5919 5919 5920 5920 5920 5919 5918 5917 5916 5916 5915 5913 5911 5910 5910
5833 5836 5839 5841 5844 5846 5849 5852 5854 5856 5859 5861 5863 5865 5866 5868 5869 5871 5874 5876 5878 5879 5880 5882 5883 5886 5888 5890 5890 5891 5892 5893 5895 5896 5896 5896 5896 5897 5898 5899 5899 5900 5901 5902 5901 5902 5902 5903 5903 5904 5905 5906 5907 5908 5909 5910 5910 5911 5912 5913 5914 5915 5915 5915 5916 5917 5918 5918 5917 5916 5916 5917 5917 5917 5916 5915 5914 5913 5912 5911 5910 5909 5907 5905 5904
5828 5831 5834 5836 5839 5841 5844 5846 5848 5851 5853 5855 5858 5859 5861 5862 5864 5867 5869 5871 5873 5875 5876 5878 5880 5881 5883 5884 5886 5886 5888 5890 5891 5891 5890 5890 5890 5891 5893 5893 5893 5894 5895 5895 5895 5896 5898 5899 5901 5901 5902 5903 5903 5903 5904 5905 5906 5906 5908 5909 5909 5910 5910 5911 5913 5914 5914 5914 5914 5914 5914 5914 5914 5913 5912 5912 5911 5909 5908 5907 5906 5904 5902 5900 5898
5823 5826 5828 5831 5833 5836 5839 5841 5843 5845 5848 5850 5851 5851 5852 5856 5859 5863 5865 5867 5869 5871 5872 5874 5875 5876 5877 5879 5881 5882 5885 5886 5887 5885 5885 5885 5886 5886 5886 5887 5887 5888 5889 5889 5890 5893 5895 5897 5898 5899 5898 5899 5899 5899 5900 5900 5901 5902 5903 5904 5905 5905 5906 5907 5909 5910 5910 5910 5910 5911 5911 5911 5910 5910 5909 5908 5907 5906 5904 5903 5902 5900 5898 5896 5894
5817 5820 5822 5825 5827 5830 5833 5835 5838 5839 5841 5842 5842 5844 5849 5854 5858 5860 5862 5864 5865 5866 5868 5869 5870 5871 5873 5875 5876 5878 5880 5881 5882 5882 5882 5882 5881 5881 5881 5881 5881 5882 5884 5885 5887 5889 5892 5894 5895 5894 5894 5894 5894 5894 5895 5895 5896 5897 5898 5898 5900 5901 5902 5903 5904 5905 5906 5906 5907 5907 5908 5907 5907 5906 5905 5904 5903 5902 5900 5899 5898 5896 5894 5893 5891
5811 5814 5816 5819 5821 5824 5827 5829 5831 5832 5833 5835 5837 5842 5847 5851 5854 5856 5857 5858 5860 5862 5864 5865 5866 5867 5869 5871 5872 5873 5875 5876 5877 5877 5877 5877 5876 5876 5875 5875 5876 5877 5879 5881 5884 5887 5889 5890 5890 5890 5889 5889 5889 5890 5890 5890 5891 5892 5893 5894 5895 5896 5897 5898 5900 5901 5902 5902 5902 5903 5904 5904 5903 5902 5901 5900 5899 5898 5897 5896 5894 5893 5891 5889 5888
5805 5808 5811 5813 5815 5818 5820 5822 5824 5826 5828 5831 5835 5839 5843 5846 5850 5852 5853 5854 5856 5858 5860 5862 5863 5864 5865 5867 5868 5869 5870 5871 5871 5871 5872 5871 5870 5869 5869 5870 5871 5873 5875 5879 5882 5884 5885 5885 5885 5884 5884 5884 5884 5884 5884 5885 5886 5887 5888 5889 5890 5891 5893 5894 5895 5897 5898 5898 5899 5900 5900 5899 5899 5898 5897 5896 5895 5894 5893 5892 5890 5889 5887 5886 5884
5799 5802 5805 5807 5809 5811 5814 5816 5817 5819 5822 5825 5828 5831 5836 5841 5844 5845 5847 5849 5851 5852 5854 5857 5859 5860 5862 5863 5863 5864 5865 5865 5865 5866 5866 5865 5864 5863 5863 5865 5868 5870 5873 5876 5878 5879 5880 5880 5880 5879 5879 5879 5879 5879 5879 5880 5881 5882 5883 5885 5886 5887 5888 5890 5891 5893 5894 5894 5895 5895 5895 5895 5894 5893 5892 5892 5891 5890 5889 5888 5886 5885 5883 5882 5880
5793 5796 5798 5801 5803 5805 5807 5809 5811 5812 5814 5817 5820 5824 5828 5833 5835 5838 5841 5843 5845 5847 5848 5851 5853 5856 5857 5858 5859 5859 5859 5859 5859 5859 5859 5858 5858 5858 5859 5862 5865 5868 5871 5872 5873 5874 5875 5875 5875 5875 5874 5874 5874 5873 5873 5873 5875 5876 5877 5878 5879 5881 5884 5885 5886 5887 5889 5890 5890 5890 5890 5889 5889 5888 5887 5887 5887 5886 5885 5883 5882 5880 5879 5877 5876
5786 5789 5791 5794 5796 5799 5800 5802 5804 5806 5809 5814 5818 5822 5825 5827 5828 5830 5833 5836 5839 5842 5844 5845 5848 5850 5851 5852 5853 5854 5854 5854 5853 5853 5852 5853 5853 5854 5856 5859 5862 5864 5866 5867 5868 5869 5870 5871 5872 5871 5869 5868 5869 5871 5871 5873 5876 5878 5878 5875 5874 5875 5877 5879 5880 5881 5883 5884 5884 5884 5884 5883 5883 5883 5882 5881 5881 5880 5879 5878 5877 5876 5874 5873 5871
5780 5782 5784 5786 5788 5791 5793 5795 5798 5800 5803 5808 5814 5819 5823 5825 5826 5827 5829 5830 5833 5836 5838 5839 5841 5842 5842 5843 5845 5847 5848 5848 5847 5847 5847 5848 5849 5851 5853 5856 5858 5860 5861 5862 5863 5865 5866 5867 5868 5866 5864 5865 5869 5872 5873 5874 5875 5876 5877 5876 5874 5873 5873 5873 5874 5876 5878 5878 5878 5877 5877 5877 5877 5877 5876 5875 5874 5873 5872 5872 5871 5870 5869 5868 5866
5773 5775 5777 5779 5781 5783 5786 5789 5791 5793 5796 5800 5805 5811 5814 5817 5819 5822 5824 5826 5827 5828 5829 5830 5832 5833 5834 5835 5836 5838 5840 5840 5841 5842 5843 5845 5847 5849 5851 5853 5854 5855 5856 5857 5859 5860 5862 5863 5862 5861 5860 5862 5865 5866 5867 5868 5868 5868 5870 5871 5871 5870 5869 5868 5869 5869 5870 5871 5871 5871 5871 5871 5871 5870 5869 5868 5868 5867 5867 5866 5865 5864 5863 5862 5861
5767 5769 5770 5772 5774 5776 5779 5782 5784 5787 5791 5794 5799 5802 5805 5807 5810 5814 5818 5820 5820 5820 5820 5822 5823 5825 5827 5828 5828 5830 5832 5833 5835 5838 5840 5841 5844 5846 5848 5849 5849 5849 5850 5853 5855 5856 5857 5857 5857 5856 5856 5857 5857 5859 5861 5862 5862 5862 5863 5865 5866 5866 5865 5864 5864 5863 5862 5863 5865 5865 5866 5866 5866 5865 5864 5863 5862 5861 5860 5859 5858 5858 5857 5856 5855
5760 5762 5764 5765 5767 5769 5771 5774 5778 5782 5786 5789 5792 5795 5798 5800 5804 5807 5810 5812 5813 5813 5814 5816 5817 5818 5819 5820 5822 5823 5825 5827 5830 5833 5836 5838 5839 5841 5842 5843 5842 5842 5845 5849 5850 5850 5851 5851 5852 5852 5852 5851 5851 5853 5856 5857 5857 5857 5858 5859 5861 5861 5860 5859 5859 5858 5857 5857 5858 5858 5859 5859 5859 5858 5858 5857 5855 5854 5854 5852 5851 5851 5850 5849 5848
5754 5756 5757 5758 5760 5762 5764 5767 5771 5776 5781 5784 5786 5788 5792 5795 5798 5801 5803 5805 5807 5808 5809 5810 5812 5813 5813 5814 5816 5817 5819 5822 5826 5830 5832 5833 5833 5834 5835 5835 5835 5836 5840 5843 5844 5844 5846 5848 5849 5850 5849 5848 5847 5847 5848 5850 5851 5852 5853 5854 5854 5855 5854 5854 5853 5853 5852 5852 5852 5851 5851 5851 5851 5850 5849 5849 5848 5847 5846 5845 5845 5844 5843 5842 5841
5747 5750 5751 5752 5754 5756 5758 5761 5765 5770 5774 5777 5780 5782 5786 5789 5793 5795 5797 5799 5801 5803 5804 5806 5806 5807 5807 5808 5810 5812 5814 5817 5820 5823 5824 5825 5826 5827 5828 5828 5829 5830 5832 5834 5836 5838 5840 5842 5844 5845 5845 5844 5844 5843 5842 5843 5845 5846 5847 5848 5848 5848 5848 5848 5848 5847 5847 5846 5846 5845 5844 5844 5843 5843 5842 5841 5840 5839 5838 5837 5836 5836 5835 5833 5832
5741 5744 5746 5747 5749 5751 5754 5756 5759 5763 5767 5771 5774 5777 5779 5782 5786 5789 5790 5793 5795 5798 5799 5800 5800 5800 5801 5803 5805 5806 5807 5810 5813 5816 5818 5818 5819 5821 5822 5823 5824 5825 5827 5829 5831 5832 5834 5836 5837 5838 5839 5839 5838 5838 5838 5838 5839 5840 5841 5841 5841 5841 5842 5842 5842 5842 5841 5840 5839 5838 5838 5837 5836 5836 5834 5833 5832 5831 5829 5829 5828 5827 5826 5825 5823
5734 5737 5740 5742 5745 5747 5749 5751 5753 5757 5760 5764 5768 5771 5774 5776 5779 5782 5784 5786 5788 5790 5792 5792 5792 5793 5795 5796 5797 5798 5799 5802 5806 5810 5813 5815 5816 5817 5817 5818 5819 5820 5822 5824 5826 5828 5829 5830 5830 5831 5832 5832 5832 5832 5833 5833 5833 5834 5834 5834 5834 5834 5834 5834 5835 5835 5834 5833 5832 5832 5831 5830 5829 5828 5827 5825 5824 5823 5821 5820 5819 5818 5817 5816 5815
5727 5730 5733 5737 5740 5743 5744 5746 5748 5751 5754 5757 5761 5765 5768 5770 5773 5776 5778 5779 5782 5784 5785 5784 5784 5785 5787 5788 5789 5790 5792 5795 5797 5802 5806 5810 5812 5812 5813 5814 5814 5816 5817 5818 5820 5821 5822 5823 5823 5824 5824 5825 5826 5826 5827 5827 5827 5828 5827 5827 5827 5827 5827 5827 5827 5827 5827 5826 5825 5824 5824 5823 5822 5820 5819 5817 5816 5814 5813 5812 5810 5809 5808 5807 5807
5720 5723 5727 5731 5734 5736 5738 5740 5742 5744 5748 5750 5753 5757 5760 5763 5767 5770 5771 5773 5775 5778 5778 5778 5777 5778 5779 5780 5781 5783 5785 5788 5790 5793 5798 5803 5805 5807 5808 5809 5810 5811 5812 5813 5814 5815 5816 5817 5818 5818 5819 5819 5820 5820 5820 5821 5821 5821 5821 5821 5820 5820 5820 5820 5820 5820 5820 5819 5818 5817 5816 5815 5814 5812 5811 5809 5808 5806 5805 5803 5802 5801 5801 5800 5799
5713 5717 5721 5725 5727 5729 5732 5735 5737 5739 5741 5744 5746 5749 5753 5757 5761 5763 5764 5765 5767 5769 5769 5768 5769 5769 5770 5772 5773 5776 5780 5783 5784 5786 5791 5796 5798 5799 5800 5801 5802 5804 5806 5808 5809 5810 5811 5812 5812 5813 5813 5814 5813 5813 5813 5814 5814 5814 5814 5814 5814 5813 5814 5813 5813 5813 5812 5811 5810 5809 5808 5807 5805 5804 5803 5801 5799 5798 5796 5795 5795 5794 5793 5793 5791
5708 5712 5715 5719 5721 5723 5726 5729 5731 5733 5735 5737 5739 5742 5746 5751 5755 5756 5756 5757 5759 5761 5761 5761 5762 5763 5764 5765 5767 5771 5774 5776 5777 5780 5785 5789 5790 5789 5790 5792 5794 5797 5799 5802 5803 5804 5805 5806 5806 5807 5807 5807 5807 5807 5807 5807 5807 5807 5807 5807 5807 5806 5806 5806 5805 5804 5803 5803 5803 5802 5800 5798 5797 5796 5794 5793 5792 5790 5789 5788 5787 5786 5786 5784 5783
5702 5706 5709 5712 5715 5717 5719 5722 5724 5726 5729 5731 5732 5735 5740 5746 5749 5750 5750 5751 5753 5754 5755 5756 5757 5759 5760 5760 5762 5765 5768 5770 5772 5775 5778 5781 5782 5783 5785 5786 5788 5790 5792 5795 5796 5797 5798 5799 5799 5799 5799 5799 5799 5800 5800 5800 5800 5800 5800 5800 5800 5799 5798 5797 5797 5796 5795 5794 5795 5794 5792 5791 5789 5788 5786 5785 5783 5782 5781 5780 5779 5778 5777 5775 5773
5695 5699 5703 5706 5709 5711 5713 5715 5717 5720 5724 5726 5727 5731 5734 5737 5738 5740 5742 5744 5747 5748 5749 5750 5751 5753 5755 5756 5757 5759 5761 5764 5766 5769 5772 5774 5777 5779 5780 5781 5782 5784 5786 5787 5788 5789 5790 5790 5790 5790 5791 5791 5792 5792 5792 5792 5792 5792 5792 5793 5793 5792 5790 5790 5789 5788 5787 5786 5786 5786 5784 5782 5781 5780 5778 5776 5775 5773 5772 5771 5770 5768 5767 5766 5764
5688 5692 5696 5700 5703 5705 5707 5708 5711 5714 5718 5720 5722 5725 5728 5728 5728 5730 5734 5737 5740 5742 5744 5745 5746 5748 5750 5751 5751 5752 5754 5757 5761 5764 5766 5767 5769 5771 5772 5773 5775 5777 5778 5778 5779 5780 5781 5781 5782 5782 5783 5784 5784 5784 5785 5785 5785 5785 5785 5786 5785 5784 5783 5783 5782 5780 5779 5778 5779 5778 5775 5773 5772 5771 5769 5768 5766 5765 5764 5763 5761 5759 5758 5756 5755